Time,TemperatureF,DewpointF,PressureIn,WindDirection,WindDirectionDegrees,WindSpeedMPH,WindSpeedGustMPH,Humidity,HourlyPrecipIn,Conditions,Clouds,dailyrainin,SoftwareType,DateUTC
2013-12-19 00:22:00,29.0,17.0,-100.00,SSW,195,3.0,4.0,60,0.00,,,-99.99,,2013-12-19 05:22:00,
2013-12-19 00:52:00,29.0,17.0,-100.00,SSW,200,3.0,4.0,59,0.00,,,-99.99,,2013-12-19 05:52:00,
2013-12-19 01:22:00,31.0,17.0,-100.00,SSW,200,4.0,6.0,55,0.00,,,-99.99,,2013-12-19 06:22:00,
2013-12-19 01:52:00,31.0,17.0,-100.00,SSW,200,4.0,7.0,55,0.00,,,-99.99,,2013-12-19 06:52:00,
2013-12-19 02:01:00,31.0,17.0,-100.00,SSW,200,4.0,7.0,55,0.00,,,-99.99,,2013-12-19 07:01:00,
2013-12-19 02:21:00,30.0,17.0,-100.00,South,190,4.0,6.0,57,0.00,,,-99.99,,2013-12-19 07:21:00,
2013-12-19 02:52:00,31.0,17.0,-100.00,South,190,4.0,6.0,56,0.00,,,-99.99,,2013-12-19 07:52:00,
2013-12-19 03:21:00,31.0,17.0,-100.00,SSW,195,4.0,6.0,56,0.00,,,-99.99,,2013-12-19 08:21:00,
2013-12-19 03:52:00,31.0,17.0,-100.00,SSW,195,2.0,5.0,56,0.00,,,-99.99,,2013-12-19 08:52:00,
2013-12-19 04:22:00,31.0,17.0,-100.00,SSW,200,3.0,4.0,56,0.00,,,-99.99,,2013-12-19 09:22:00,
2013-12-19 04:53:00,30.0,17.0,-100.00,SSW,195,4.0,6.0,58,0.00,,,-99.99,,2013-12-19 09:53:00,
2013-12-19 05:23:00,31.0,18.0,-100.00,SSW,200,5.0,7.0,57,0.00,,,-99.99,,2013-12-19 10:23:00,
2013-12-19 05:53:00,31.0,18.0,-100.00,SSW,195,6.0,7.0,57,0.00,,,-99.99,,2013-12-19 10:53:00,
2013-12-19 06:22:00,31.0,19.0,-100.00,SSW,195,6.0,8.0,58,0.00,,,-99.99,,2013-12-19 11:22:00,
2013-12-19 06:52:00,32.0,19.0,-100.00,SSW,195,6.0,8.0,58,0.00,,,-99.99,,2013-12-19 11:52:00,
2013-12-19 07:02:00,32.0,19.0,-100.00,SSW,195,6.0,8.0,58,0.00,,,-99.99,,2013-12-19 12:02:00,
2013-12-19 07:22:00,32.0,19.0,-100.00,SSW,195,5.0,7.0,60,0.00,,,-99.99,,2013-12-19 12:22:00,
2013-12-19 07:52:00,33.0,20.0,-100.00,SSW,200,6.0,7.0,58,0.00,,,-99.99,,2013-12-19 12:52:00,
2013-12-19 08:22:00,34.0,20.0,-100.00,SSW,195,6.0,7.0,58,0.00,,,-99.99,,2013-12-19 13:22:00,
2013-12-19 08:52:00,35.0,21.0,-100.00,SSW,195,5.0,7.0,56,0.00,,,-99.99,,2013-12-19 13:52:00,
2013-12-19 09:22:00,36.0,21.0,-100.00,SSW,195,4.0,6.0,54,0.00,,,-99.99,,2013-12-19 14:22:00,
2013-12-19 09:52:00,38.0,22.0,-100.00,SSW,195,3.0,6.0,53,0.00,,,-99.99,,2013-12-19 14:52:00,
2013-12-19 10:22:00,40.0,24.0,-100.00,SSW,195,3.0,6.0,52,0.00,,,-99.99,,2013-12-19 15:22:00,
2013-12-19 10:54:00,41.0,25.0,-100.00,SSW,195,4.0,6.0,51,0.00,,,-99.99,,2013-12-19 15:54:00,
2013-12-19 11:23:00,43.0,26.0,-100.00,South,185,4.0,6.0,52,0.00,,,-99.99,,2013-12-19 16:23:00,
2013-12-19 11:53:00,45.0,28.0,-100.00,South,185,4.0,6.0,50,0.00,,,-99.99,,2013-12-19 16:53:00,
2013-12-19 12:22:00,46.0,29.0,-100.00,SW,215,2.0,6.0,51,0.00,,,-99.99,,2013-12-19 17:22:00,
2013-12-19 12:52:00,47.0,30.0,-100.00,SSW,200,4.0,6.0,51,0.00,,,-99.99,,2013-12-19 17:52:00,
2013-12-19 13:22:00,48.0,32.0,-100.00,SSW,205,1.0,5.0,53,0.00,,,-99.99,,2013-12-19 18:22:00,
2013-12-19 13:52:00,49.0,33.0,-100.00,South,190,4.0,6.0,55,0.00,,,-99.99,,2013-12-19 18:52:00,
2013-12-19 14:22:00,49.0,34.0,-100.00,South,190,2.0,4.0,56,0.00,,,-99.99,,2013-12-19 19:22:00,
2013-12-19 14:52:00,49.0,35.0,-100.00,SSW,195,3.0,5.0,57,0.00,,,-99.99,,2013-12-19 19:52:00,
2013-12-19 15:22:00,51.0,36.0,-100.00,South,185,2.0,4.0,57,0.00,,,-99.99,,2013-12-19 20:22:00,
2013-12-19 15:52:00,50.0,37.0,-100.00,SSW,200,2.0,3.0,59,0.00,,,-99.99,,2013-12-19 20:52:00,
2013-12-19 16:22:00,49.0,37.0,-100.00,SSW,205,1.0,4.0,64,0.00,,,-99.99,,2013-12-19 21:22:00,
2013-12-19 16:43:00,48.0,37.0,-100.00,East,85,1.0,8.0,65,0.00,,,-99.99,,2013-12-19 21:43:00,
2013-12-19 16:53:00,45.0,36.0,-100.00,SSW,205,1.0,6.0,70,0.00,,,-99.99,,2013-12-19 21:53:00,
2013-12-19 17:23:00,45.0,35.0,-100.00,SSW,195,2.0,4.0,67,0.00,,,-99.99,,2013-12-19 22:23:00,
2013-12-19 17:53:00,44.0,35.0,-100.00,West,270,2.0,6.0,68,0.00,,,-99.99,,2013-12-19 22:53:00,
2013-12-19 18:22:00,44.0,33.0,-100.00,West,275,1.0,6.0,66,0.00,,,-99.99,,2013-12-19 23:22:00,
2013-12-19 18:53:00,41.0,33.0,-100.00,SSW,205,1.0,4.0,72,0.00,,,-99.99,,2013-12-19 23:53:00,
2013-12-19 19:22:00,44.0,33.0,-100.00,SW,230,2.0,6.0,65,0.00,,,-99.99,,2013-12-20 00:22:00,
2013-12-19 19:32:00,44.0,33.0,-100.00,SW,230,2.0,6.0,65,0.00,,,-99.99,,2013-12-20 00:32:00,
2013-12-19 19:52:00,39.0,32.0,-100.00,SW,225,1.0,6.0,73,0.00,,,-99.99,,2013-12-20 00:52:00,
2013-12-19 20:21:00,39.0,31.0,-100.00,WNW,295,0.0,6.0,74,0.00,,,-99.99,,2013-12-20 01:21:00,
2013-12-19 20:52:00,40.0,32.0,-100.00,West,265,3.0,6.0,72,0.00,,,-99.99,,2013-12-20 01:52:00,
2013-12-19 21:22:00,39.0,32.0,-100.00,West,270,2.0,6.0,76,0.00,,,-99.99,,2013-12-20 02:22:00,
2013-12-19 21:52:00,40.0,31.0,-100.00,ENE,60,2.0,6.0,69,0.00,,,-99.99,,2013-12-20 02:52:00,
2013-12-19 22:22:00,39.0,31.0,-100.00,NW,315,1.0,6.0,72,0.00,,,-99.99,,2013-12-20 03:22:00,
2013-12-19 22:53:00,38.0,30.0,-100.00,NE,35,2.0,6.0,74,0.00,,,-99.99,,2013-12-20 03:53:00,
2013-12-19 23:23:00,38.0,31.0,-100.00,West,275,2.0,6.0,74,0.00,,,-99.99,,2013-12-20 04:23:00,
2013-12-19 23:53:00,39.0,31.0,-100.00,NNE,15,1.0,4.0,73,0.00,,,-99.99,,2013-12-20 04:53:00,